Weather in Zhilina

Russia / Oryol Oblast     53°00′18″N   36°04′12″E
temp.,
°C
wind,
m/s
gust,
m/s
humid.,
%
clouds,
%
prec.,
mm/h
press.,
hPa
HPBL,
m
17 april, sat
sat1700:00+7se34795 0.0 101755
03:00+6se22845 0.0 101824
06:00+5ene228787 0.0 101815
09:00+9wnw1172100 0.0 1017271
12:00+7ssw3394100 3.6 1017212
15:00+6ssw4689100 5.4 1018427
18:00+7ssw2384100 0.0 1018460
21:00+5ene338928 0.1 101844
18 april, sun
sun1800:00+4ese349453 0.3 101881
03:00+3ese119482 0.3 101910
06:00+3se22945 0.0 101938
09:00+7se457550 0.0 1019623
12:00+9se4559100 0.1 10191370
15:00+9se5670100 0.4 10191204
18:00+9e4774100 0.3 1019575
21:00+7ese51179100 0.4 1019470
19 april, mon
mon1900:00+7e51283100 1.1 1018482
03:00+7ese61288100 2.9 1018521
06:00+7e71388100 1.3 1018572
09:00+7e81384100 2.1 1019734
12:00+7e71089100 2.6 1018932
15:00+11e61071100 4.6 10171530
18:00+9e51085100 1.5 1016402
21:00+8e51194100 5.1 1017554
20 april, tue
tue2000:00+7e7139175 1.2 1016494
03:00+7e61393100 1.3 1015555
06:00+7e71493100 1.1 1013827
09:00+6e81592100 1.9 1011728
12:00+6ene91792100 0.6 1007880
15:00+6e112193100 8.8 10001046
18:00+8ese132090100 3.9 996966
21:00+10se7148986 4.3 996476
21 april, wed
wed2100:00+9se61485100 0.1 997485
03:00+8se6139194 0.5 997580
06:00+3sw81396100 1.3 1000646
09:00+5sw71488100 1.4 10041230
12:00+10sw91265100 0.1 10081608
15:00+8ssw71272100 0.2 10101566
18:00+9ssw61075100 0.0 10121015
21:00+7s513855 0.1 1014334